Location: Newark
(50.4348°N, 30.5552°E)
Time: 22:01:16
(UTC+00:00)

Altair - Pass Details

Date: 20 January 2020
Orbit: 1502 x 1682 km, 47.2° (Epoch: 19 February)

Event Time Altitude Azimuth Distance (km) Brightness Sun altitude
Rises 09:57:13 0° 254° (WSW) 4,925 10.3 19.3°
Reaches altitude 10° 10:00:23 10° 253° (WSW) 3,943 9.9 19.4°
Maximum altitude 10:10:30 73° 171° (S) 1,740 8.5 19.4°
Drops below altitude 10° 10:20:28 10° 90° (E) 3,892 9.7 19.3°
Sets 10:23:35 0° 88° (E) 4,859 10.1 19.3°
